This is the latest recevied weather packets stored in our database for station/object SR6NWB-11. If no packets are shown the sender has not sent any weather packets the latest 10 day(s).
| Time | Temp. | Humidity | Pressure | Rain* | Wind** | Luminosity | Snow |
|---|---|---|---|---|---|---|---|
| 1777689226 | 11.11° C | 40% | 1028.6 hPa | 0 mm | - | - | - |
| 1777688711 | 11.11° C | 40% | 1028.7 hPa | 0 mm | - | - | - |
| 1777688126 | 11.11° C | 40% | 1028.7 hPa | 0 mm | - | - | - |
| 1777673486 | 11.67° C | 39% | 1029.5 hPa | 0 mm | - | - | - |
| 1777672351 | 11.67° C | 39% | 1029.5 hPa | 0 mm | - | - | - |
| 1777670801 | 11.67° C | 39% | 1029.6 hPa | 0 mm | - | - | - |
| 1777668731 | 12.22° C | 38% | 1029.7 hPa | 0 mm | - | - | - |
| 1777668161 | 12.22° C | 38% | 1029.8 hPa | 0 mm | - | - | - |
| 1777665991 | 12.22° C | 37% | 1029.6 hPa | 0 mm | - | - | - |
| 1777665506 | 12.22° C | 36% | 1029.7 hPa | 0 mm | - | - | - |
| 1777663291 | 12.78° C | 34% | 1029.6 hPa | 0 mm | - | - | - |
| 1777662731 | 12.78° C | 34% | 1029.5 hPa | 0 mm | - | - | - |
| 1777659976 | 13.89° C | 31% | 1029.3 hPa | 0 mm | - | - | - |
| 1777659376 | 14.44° C | 31% | 1029.3 hPa | 0 mm | - | - | - |
| 1777658826 | 14.44° C | 30% | 1029.2 hPa | 0 mm | - | - | - |
| 1777658342 | 15° C | 30% | 1029.2 hPa | 0 mm | - | - | - |
| 1777657241 | 15° C | 30% | 1029 hPa | 0 mm | - | - | - |
| 1777656761 | 15° C | 30% | 1029.1 hPa | 0 mm | - | - | - |
| 1777656206 | 15° C | 29% | 1029 hPa | 0 mm | - | - | - |
| 1777653421 | 16.67° C | 27% | 1029.3 hPa | 0 mm | - | - | - |
| 1777652851 | 17.22° C | 27% | 1029.3 hPa | 0 mm | - | - | - |
| 1777652331 | 17.78° C | 26% | 1029.3 hPa | 0 mm | - | - | - |
| 1777651836 | 18.33° C | 26% | 1029.3 hPa | 0 mm | - | - | - |
| 1777651316 | 18.89° C | 25% | 1029.4 hPa | 0 mm | - | - | - |
| 1777649706 | 18.89° C | 25% | 1029.5 hPa | 0 mm | - | - | - |
* Rain latest hour (hover to see other rain measurements)
** Current wind speed in m/s (hover to see current wind gust speed)